FENGYUN 1C DEB, 29870

Orbit data source: Space-Track

FENGYUN 1C DEB, 29870 is space debris in SSO originally from a launch on Mon, 10 May 1999 UTC launched from the Taiyaun Space Center, China (TSC). Fengyun 1C debris stems from the Chinese weather satellite Fengyun-1C, which was intentionally destroyed by a Chinese anti-satellite missile in 2007. This event dramatically increased the amount of space debris, with thousands of trackable fragments posing hazards to satellites and human spaceflight. The Fengyun 1C debris cloud has become a focal point in discussions about space sustainability and the need for international regulations to prevent the creation of new debris.

Loading next visibility...
Identifier
29870, 1999-025FQ
Orbit
SSO
Country
Flag of CNCN / PRC
Related business
Manufacturer
Unknown
Mission
Spacecraft
Bus & Motor
Unknown
Mass
Unknown
Launch date (UTC)
1999-05-10 (27 years ago)
Launch vehicle
Unknown
Launch site
Taiyaun Space Center, China (TSC)
Object type
Payload
Rocket body
Debris
Shape & HBR
Unknown shape, 0.2 m
Radar Cross Section
Medium (>0.1 m² and <1 m²)

Expand to show TLE details & history
Last TLE update: 5 hours ago

TLE from 5 hours ago
0 FENGYUN 1C DEB
1 29870U 99025FQ  26164.87854637  .00000123  00000-0  60730-4 0  9994
2 29870  98.4841 135.7155 0120369  14.2755  45.6854 14.29053160 12077
Epoch: 2026-06-13T21:05Z
TLE epoch observation values (Epoch: 2026-06-13T21:05:06.406Z)
Latitude
59.94615°
Longitude
-97.60652°
Altitude
745.276 km
Speed
7.519 km/s
True Right ascension
08h 03m 25s
True Declination
59° 47' 48"
Sunlit
Object was in daylight at epoch
Visualization orbit readout
Latitude
Unknown
Longitude
Unknown
Altitude
Unknown
Speed
Unknown
Apparent Right ascension
Unknown
Apparent Declination
Unknown
Sunlit
N/A
Visualization observer readout
Local Sidereal Time
12:16:10
Azimuth
Unknown
Elevation
Unknown
Doppler factor
Unknown
Orbital elements
Apogee altitude
878.339 km
Perigee altitude
705.726 km
Semi-major axis
7,170.17 km
Eccentricity
0.01204
Inclination
98.4841°
RAAN
135.7155°
Arg. of periapsis
14.2755°
True anomaly
46.68276°
Mean anomaly
45.6854°
Eccentric anomaly
46.18303°
Mean motion
3.57478 °/min
Orbital period
100.71 mins
BSTAR
0.00006073
Loading maneuver chart data...
Computing Atmospheric mass density...
Loading historical data...
Loading historical data...
Loading historical data...
Loading historical data...
Loading historical data...
Loading historical data...
Loading historical data...

Documentation

Showing up to 5 results
|